Regional Weather Roundup
Issued by NWS

Home | Current Version | Previous Version | Graphics & Text | Print | Product List | Glossary Off
Versions: 1 2 3 4 5 6 7 8 9 10 11 12 13 14 15 16 17 18 19 20 21 22 23 24 25 26 27 28 29 30 31 32 33 34 35 36 37 38 39 40 41 42 43 44 45 46 47 48 49 50

000
ASUS43 KTOP 240608
RWRKS

WEATHER ROUNDUP FOR KANSAS
NATIONAL WEATHER SERVICE GOODLAND KS
100 AM CDT SUN JUL 24 2016

NOTE:  "FAIR" INDICATES FEW OR NO CLOUDS BELOW 12,000 FEET WITH NO
SIGNIFICANT WEATHER AND/OR OBSTRUCTIONS TO VISIBILITY.

KSZ001>006-013>018-027>032-041>047-240700-
NORTHWEST KANSAS

CITY           SKY/WX    TMP DP  RH WIND       PRES   REMARKS
GOODLAND       MOCLDY    77  61  57 NW14      30.06R
6HR MIN TEMP:  68; 6HR MAX TEMP:  99;

HAYS           CLOUDY    84  57  39 SW8       29.89R
HILL CITY      MOCLDY    76  70  82 CALM      29.89R
6HR MIN TEMP:  76; 6HR MAX TEMP: 101;

RUSSELL        CLOUDY    86  60  41 S14       29.86R
6HR MIN TEMP:  84; 6HR MAX TEMP: 102;

$$

KSZ061>065-074>080-084>089-240700-
SOUTHWEST KANSAS

CITY           SKY/WX    TMP DP  RH WIND       PRES   REMARKS
DODGE CITY     CLOUDY    82  60  47 S13       29.93R
6HR MIN TEMP:  82; 6HR MAX TEMP:  98;

ELKHART          N/A     85  78  80 W6          N/A  HX  96
GARDEN CITY    CLOUDY    83  59  44 SE7       29.94R
6HR MIN TEMP:  80; 6HR MAX TEMP:  91;

GREAT BEND     PTCLDY    84  61  45 S12       29.88R
LIBERAL        CLOUDY    84  55  37 S10       29.97R
PRATT          CLEAR     82  59  44 S15       29.91R
6HR MIN TEMP:  82; 6HR MAX TEMP:  97;

$$

KSZ066>073-081>083-090>101-240700-
SOUTHEAST KANSAS

CITY           SKY/WX    TMP DP  RH WIND       PRES   REMARKS
CHANUTE        CLOUDY    79  72  79 CALM      29.90S
6HR MIN TEMP:  79; 6HR MAX TEMP:  94;

COFFEYVILLE    CLEAR     81  72  74 S3        29.90R
6HR MIN TEMP:  81; 6HR MAX TEMP:  98;

HUTCHINSON     CLOUDY    85  66  53 S10       29.88R
6HR MIN TEMP:  85; 6HR MAX TEMP:  99;

MEDICINE LODGE   N/A     86  63  45 S12       29.89R
NEWTON         PTCLDY    85  68  56 S14       29.90R
PARSONS        CLEAR     81  71  71 S3        29.91S
6HR MIN TEMP:  80; 6HR MAX TEMP:  94; 6HR PCP: TRACE;

WICHITA INTL   PTCLDY    86  68  54 S12       29.88S
6HR MIN TEMP:  86; 6HR MAX TEMP: 100;

WICHITA JABRA  CLEAR     85  68  56 S15       29.89S
6HR MIN TEMP:  85; 6HR MAX TEMP:  95;

WICHITA MCCONL MOCLDY    86  68  54 S15       29.89S
WINFIELD       MOCLDY    84  69  60 S10       29.91S
6HR MIN TEMP:  84; 6HR MAX TEMP:  96;

$$

KSZ007>012-019>026-033>040-048>060-102>105-240700-
NORTHEAST KANSAS

CITY           SKY/WX    TMP DP  RH WIND       PRES   REMARKS
CONCORDIA      CLOUDY    84  68  58 S16       29.83R
6HR MIN TEMP:  83; 6HR MAX TEMP:  93; 6HR PCP: TRACE;

EMPORIA          N/A     83  70  64 S13       29.88S
6HR MIN TEMP:  83; 6HR MAX TEMP:  92;

LAWRENCE       CLEAR     80  72  76 E9        29.87R
6HR MIN TEMP:  80; 6HR MAX TEMP:  92;

MANHATTAN      CLEAR     88  67  49 S14G21    29.84R
6HR MIN TEMP:  88; 6HR MAX TEMP:  95;

MARYSVILLE     CLOUDY    82  70  65 S13       29.85S
OLATHE IND     CLOUDY    82  72  71 S7        29.90R
6HR MIN TEMP:  82; 6HR MAX TEMP:  91;

OLATHE EXE     CLOUDY    82  72  71 S7        29.90S
6HR MIN TEMP:  80; 6HR MAX TEMP:  89;

SALINA         CLEAR     87  68  52 S14       29.84R
6HR MIN TEMP:  87; 6HR MAX TEMP: 100;

TOPEKA BILLARD CLEAR     86  69  56 S8        29.85S
6HR MIN TEMP:  86; 6HR MAX TEMP:  90;

TOPEKA FORBES  CLEAR     85  70  60 S13       29.86S
6HR MIN TEMP:  85; 6HR MAX TEMP:  94;

$$



USA.gov is the U.S. government's official web portal to all federal, state and local government web resources and services.